This demonstration page uses our WeatherBlox Daily Observations layout. Learn more.

Left ArrowRight Arrow

39.12711, -84.51439

Hourly Observations for November 11, 2020

Temp ( °F °C ) Dew Point ( °F °C ) Humidity (%) Winds ( mph kmh ) Pressure ( in mb ) Visibility ( mi km ) Precip ( " mm )
12:06 am 00:06 Cloudy with Light Rain 67 19.4 64 17.8 91 91 SSW 10 17 29.85 1011 5 8 0.01 0.25
12:42 am 00:42 Cloudy with Light Rain 67 19.4 65 18.3 93 93 SSW 13 20 29.84 1010 5 8 0.07 1.78
12:53 am 00:53 Cloudy with Light Rain 67 19.4 65 18.3 93 93 SSW 13 20 29.84 1011 5 8 0.08 2.03
1:27 am 01:27 Cloudy with Heavy Rain 67 19.4 65 18.3 93 93 SSW 10 17 29.84 1010 3 4 0.08 2.03
1:46 am 01:46 Cloudy with Light Rain 67 19.4 65 18.3 93 93 SSW 9 15 29.84 1010 4 6 0.18 4.57
1:53 am 01:53 Cloudy with Light Rain 67 19.4 65 18.3 93 93 SSW 8 13 29.83 1010 5 8 0.18 4.57
2:13 am 02:13 Cloudy with Rain 67 19.4 65 18.3 93 93 SW 6 9 29.85 1011 2 3 0.06 1.52
2:28 am 02:28 Cloudy with Heavy Rain 67 19.4 66 18.9 97 97 S 13 20 29.84 1010 2 3 0.15 3.81
2:33 am 02:33 Cloudy with Rain 67 19.4 66 18.9 97 97 S 12 19 29.84 1010 3 5 0.16 4.06
2:45 am 02:45 Cloudy with Light Rain 68 20 65 18.3 90 90 S 13 20 29.84 1010 6 10 0.18 4.57
2:53 am 02:53 Cloudy with Light Rain 68 20 65 18.3 90 90 SW 10 17 29.85 1011 10 16 0.18 4.57
3:37 am 03:37 Cloudy with Light Rain 67 19.4 64 17.8 91 91 NW 22 35 29.87 1011 8 13 0.01 0.25
3:53 am 03:53 Cloudy with Light Rain 61 16.1 58 14.4 90 90 WNW 12 19 29.88 1012 9 14 0.02 0.51
4:20 am 04:20 Cloudy with Light Rain 61 16.1 58 14.4 90 90 N 3 6 29.90 1012 6 10 0.00 0.00
4:53 am 04:53 Cloudy 60 15.6 52 11.1 75 75 NW 8 13 29.91 1013 10 16 0.00 0.00
5:53 am 05:53 Cloudy 58 14.4 52 11.1 81 81 NNE 5 7 29.92 1013 10 16 0.00 0.00
6:26 am 06:26 Cloudy 57 13.9 51 10.6 81 81 Calm 29.94 1014 10 16 0.00 0.00
6:53 am 06:53 Cloudy 57 13.9 51 10.6 81 81 Calm 29.94 1014 10 16 0.00 0.00
7:53 am 07:53 Cloudy 57 13.9 49 9.4 74 74 Calm 29.96 1014 10 16 0.00 0.00
8:53 am 08:53 Cloudy 57 13.9 48 8.9 72 72 WNW 5 7 29.98 1015 10 16 0.00 0.00
9:53 am 09:53 Cloudy 57 13.9 49 9.4 74 74 WNW 7 11 29.99 1016 10 16 0.00 0.00
10:53 am 10:53 Cloudy 59 15 50 10 72 72 NNW 8 13 30.00 1016 10 16 0.00 0.00
11:21 am 11:21 Cloudy 57 13.9 50 10 78 78 NW 12 19 30.01 1016 10 16 0.00 0.00
11:53 am 11:53 Cloudy 57 13.9 49 9.4 74 74 NNW 9 15 30.00 1016 10 16 0.00 0.00
12:53 pm 12:53 Cloudy 59 15 48 8.9 67 67 NNW 7 11 30.01 1016 10 16 0.00 0.00
1:49 pm 13:49 Cloudy 59 15 45 7 59 59 NNW 7 11 30.01 1016 10 16 0.00 0.00
1:53 pm 13:53 Mostly Cloudy 60 15.6 44 6.7 56 56 NNW 7 11 30.00 1016 10 16 0.00 0.00
2:53 pm 14:53 Mostly Cloudy 58 14.4 41 5 53 53 NNW 9 15 30.01 1016 10 16 0.00 0.00
3:53 pm 15:53 Sunny 58 14.4 36 2.2 44 44 NNW 9 15 30.03 1017 10 16 0.00 0.00
4:53 pm 16:53 Mostly Sunny 55 12.8 38 3.3 53 53 NW 9 15 30.04 1017 10 16 0.00 0.00
5:53 pm 17:53 Clear 52 11.1 37 2.8 57 57 NW 8 13 30.06 1018 10 16 0.00 0.00
6:53 pm 18:53 Clear 50 10 36 2.2 59 59 NW 6 9 30.09 1019 10 16 0.00 0.00
7:53 pm 19:53 Clear 49 9.4 37 2.8 64 64 NNW 9 15 30.11 1020 10 16 0.00 0.00
8:53 pm 20:53 Clear 46 7.8 37 2.8 71 71 N 12 19 30.11 1020 10 16 0.00 0.00
9:53 pm 21:53 Clear 43 6.1 36 2.2 76 76 N 9 15 30.14 1021 10 16 0.00 0.00
10:53 pm 22:53 Clear 41 5 34 1.1 76 76 N 6 9 30.14 1021 10 16 0.00 0.00
11:53 pm 23:53 Clear 39 3.9 33 0.6 79 79 N 6 9 30.15 1021 10 16 0.00 0.00

Powered by AerisWeather